QPF
0.01 0.03 0.04 0.04 0.03 0.01 0.01 0.01 0.00 0.00 0.00 0.01 0.01 0.01 0.01 0.01 0.00 0.00 0.00 0.00 0.00 0.00 0.00 0.00 0.01 0.03 0.05 0.07 0.08 0.08 0.07 0.06 0.06 0.07 0.12 0.11 0.08 0.07 0.08 0.07 0.05 0.07 0.07 0.06
0.01 0.02 0.03 0.02 0.02 0.01 0.01 0.01 0.01 0.01 0.01 0.02 0.02 0.01 0.01 0.01 0.01 0.00 0.00 0.00 0.00 0.00 0.00 0.00 0.01 0.02 0.04 0.06 0.06 0.07 0.07 0.06 0.05 0.06 0.08 0.14 0.11 0.10 0.09 0.08 0.05 0.04 0.05 0.06
0.01 0.01 0.01 0.02 0.02 0.02 0.02 0.01 0.01 0.01 0.02 0.02 0.02 0.01 0.01 0.02 0.01 0.01 0.00 0.00 0.00 0.00 0.00 0.01 0.01 0.02 0.03 0.05 0.06 0.05 0.06 0.06 0.05 0.05 0.05 0.10 0.16 0.14 0.14 0.11 0.08 0.04 0.03 0.03
0.00 0.00 0.01 0.02 0.02 0.02 0.02 0.01 0.01 0.02 0.03 0.02 0.02 0.02 0.02 0.02 0.01 0.01 0.01 0.01 0.00 0.00 0.00 0.01 0.01 0.02 0.02 0.04 0.06 0.06 0.06 0.06 0.06 0.04 0.04 0.05 0.10 0.14 0.15 0.13 0.10 0.05 0.03 0.03
0.01 0.00 0.01 0.02 0.02 0.02 0.01 0.01 0.01 0.02 0.03 0.03 0.02 0.03 0.03 0.02 0.02 0.01 0.01 0.01 0.01 0.00 0.00 0.01 0.01 0.01 0.03 0.04 0.06 0.06 0.06 0.07 0.07 0.06 0.04 0.04 0.04 0.07 0.12 0.13 0.12 0.09 0.05 0.03
0.01 0.00 0.01 0.02 0.01 0.01 0.01 0.02 0.02 0.03 0.04 0.04 0.02 0.03 0.04 0.05 0.05 0.03 0.01 0.01 0.01 0.01 0.01 0.01 0.01 0.02 0.03 0.04 0.06 0.06 0.06 0.06 0.06 0.05 0.04 0.03 0.03 0.04 0.07 0.11 0.11 0.12 0.08 0.04
0.01 0.01 0.01 0.01 0.02 0.01 0.01 0.03 0.05 0.06 0.06 0.03 0.01 0.03 0.06 0.06 0.04 0.03 0.02 0.01 0.01 0.01 0.01 0.01 0.01 0.02 0.03 0.04 0.07 0.06 0.07 0.06 0.05 0.05 0.05 0.03 0.03 0.03 0.04 0.07 0.09 0.10 0.10 0.07
0.01 0.01 0.01 0.02 0.03 0.02 0.01 0.02 0.05 0.05 0.04 0.02 0.02 0.03 0.05 0.04 0.03 0.02 0.02 0.01 0.01 0.01 0.01 0.02 0.02 0.02 0.03 0.03 0.06 0.08 0.08 0.08 0.06 0.06 0.06 0.05 0.03 0.03 0.03 0.04 0.07 0.07 0.07 0.08
0.02 0.01 0.00 0.01 0.02 0.02 0.01 0.02 0.02 0.04 0.02 0.02 0.03 0.03 0.03 0.02 0.02 0.02 0.01 0.01 0.01 0.01 0.02 0.02 0.03 0.03 0.03 0.03 0.04 0.07 0.09 0.08 0.07 0.07 0.07 0.06 0.05 0.03 0.03 0.03 0.04 0.06 0.06 0.06
0.02 0.02 0.01 0.01 0.02 0.02 0.01 0.01 0.02 0.04 0.04 0.04 0.03 0.02 0.03 0.02 0.03 0.02 0.02 0.01 0.01 0.01 0.01 0.02 0.04 0.04 0.04 0.04 0.04 0.05 0.08 0.09 0.08 0.08 0.08 0.08 0.06 0.04 0.03 0.03 0.02 0.04 0.05 0.06
0.02 0.02 0.01 0.01 0.03 0.02 0.01 0.01 0.02 0.03 0.03 0.04 0.03 0.03 0.04 0.03 0.03 0.03 0.02 0.02 0.02 0.02 0.02 0.02 0.04 0.05 0.05 0.05 0.05 0.05 0.06 0.09 0.09 0.10 0.09 0.08 0.07 0.06 0.04 0.03 0.02 0.02 0.03 0.04
0.01 0.02 0.02 0.01 0.01 0.02 0.01 0.02 0.02 0.03 0.03 0.03 0.03 0.04 0.02 0.02 0.02 0.02 0.02 0.02 0.02 0.02 0.02 0.02 0.03 0.05 0.05 0.04 0.04 0.05 0.06 0.08 0.10 0.09 0.09 0.08 0.08 0.08 0.06 0.04 0.02 0.01 0.02 0.02
0.02 0.03 0.03 0.03 0.02 0.03 0.02 0.01 0.02 0.02 0.02 0.02 0.03 0.04 0.02 0.01 0.01 0.01 0.01 0.01 0.01 0.01 0.01 0.02 0.03 0.04 0.05 0.05 0.04 0.04 0.06 0.06 0.08 0.08 0.08 0.07 0.08 0.09 0.07 0.05 0.03 0.02 0.01 0.01
0.02 0.02 0.02 0.03 0.03 0.02 0.02 0.01 0.01 0.02 0.03 0.02 0.02 0.02 0.02 0.01 0.01 0.01 0.01 0.01 0.01 0.01 0.01 0.01 0.03 0.03 0.04 0.05 0.05 0.04 0.05 0.06 0.06 0.07 0.08 0.07 0.07 0.07 0.07 0.06 0.03 0.03 0.02 0.02
0.02 0.02 0.01 0.01 0.01 0.00 0.01 0.01 0.01 0.02 0.02 0.02 0.02 0.01 0.02 0.02 0.02 0.02 0.02 0.01 0.01 0.01 0.01 0.01 0.02 0.03 0.03 0.05 0.05 0.05 0.04 0.05 0.05 0.06 0.07 0.07 0.06 0.05 0.05 0.05 0.04 0.03 0.03 0.02
0.01 0.02 0.01 0.01 0.01 0.00 0.01 0.01 0.01 0.01 0.02 0.02 0.01 0.02 0.02 0.02 0.02 0.02 0.02 0.01 0.02 0.01 0.01 0.01 0.02 0.03 0.03 0.04 0.05 0.05 0.04 0.04 0.04 0.05 0.06 0.07 0.06 0.05 0.04 0.04 0.03 0.03 0.02 0.02
0.01 0.02 0.02 0.02 0.01 0.01 0.02 0.02 0.02 0.02 0.02 0.02 0.03 0.03 0.02 0.01 0.01 0.02 0.03 0.03 0.03 0.02 0.02 0.02 0.02 0.03 0.03 0.04 0.04 0.04 0.04 0.03 0.03 0.04 0.05 0.06 0.06 0.05 0.04 0.03 0.02 0.02 0.02 0.02
0.01 0.02 0.02 0.02 0.02 0.03 0.02 0.01 0.01 0.02 0.02 0.02 0.02 0.02 0.02 0.02 0.02 0.03 0.04 0.04 0.03 0.03 0.03 0.03 0.03 0.03 0.03 0.03 0.03 0.03 0.04 0.04 0.03 0.03 0.04 0.05 0.05 0.05 0.04 0.03 0.03 0.02 0.02 0.02
0.01 0.02 0.03 0.02 0.02 0.02 0.01 0.01 0.02 0.02 0.02 0.02 0.02 0.02 0.02 0.02 0.02 0.02 0.03 0.03 0.04 0.04 0.04 0.03 0.03 0.04 0.03 0.03 0.03 0.03 0.03 0.04 0.04 0.04 0.04 0.04 0.05 0.05 0.04 0.03 0.03 0.02 0.02 0.02
0.01 0.02 0.03 0.03 0.03 0.02 0.01 0.01 0.01 0.02 0.03 0.02 0.02 0.02 0.02 0.02 0.03 0.03 0.03 0.04 0.04 0.04 0.04 0.04 0.03 0.03 0.03 0.04 0.04 0.04 0.04 0.05 0.04 0.04 0.04 0.04 0.05 0.05 0.05 0.04 0.03 0.02 0.02 0.01
0.01 0.02 0.03 0.02 0.02 0.02 0.01 0.01 0.01 0.02 0.03 0.01 0.02 0.02 0.03 0.04 0.05 0.05 0.05 0.06 0.06 0.04 0.03 0.03 0.03 0.04 0.04 0.05 0.06 0.05 0.05 0.06 0.06 0.05 0.05 0.05 0.06 0.06 0.05 0.04 0.04 0.03 0.02 0.02
0.01 0.01 0.02 0.02 0.02 0.02 0.01 0.01 0.02 0.02 0.01 0.01 0.02 0.02 0.03 0.04 0.05 0.05 0.04 0.05 0.05 0.04 0.03 0.03 0.04 0.04 0.05 0.05 0.06 0.06 0.05 0.06 0.06 0.06 0.06 0.05 0.06 0.06 0.05 0.05 0.04 0.04 0.03 0.03
0.01 0.01 0.01 0.02 0.02 0.02 0.01 0.02 0.02 0.02 0.02 0.02 0.02 0.02 0.03 0.04 0.05 0.04 0.04 0.04 0.05 0.05 0.05 0.05 0.05 0.05 0.05 0.05 0.06 0.07 0.07 0.06 0.06 0.06 0.06 0.06 0.06 0.06 0.06 0.05 0.05 0.04 0.04 0.04
0.01 0.01 0.01 0.01 0.01 0.01 0.01 0.01 0.01 0.01 0.02 0.02 0.02 0.02 0.03 0.04 0.04 0.04 0.04 0.04 0.04 0.05 0.06 0.05 0.05 0.05 0.05 0.05 0.06 0.07 0.07 0.07 0.07 0.07 0.06 0.06 0.06 0.06 0.05 0.05 0.05 0.05 0.04 0.04
0.01 0.01 0.01 0.01 0.01 0.01 0.01 0.01 0.01 0.01 0.01 0.01 0.01 0.02 0.02 0.03 0.03 0.04 0.04 0.04 0.04 0.05 0.05 0.05 0.05 0.05 0.05 0.05 0.06 0.06 0.05 0.06 0.06 0.06 0.06 0.06 0.06 0.06 0.06 0.05 0.05 0.04 0.04 0.04
0.01 0.01 0.01 0.02 0.01 0.01 0.01 0.01 0.01 0.01 0.01 0.01 0.01 0.01 0.01 0.02 0.03 0.04 0.05 0.04 0.04 0.04 0.04 0.03 0.04 0.05 0.05 0.05 0.05 0.06 0.05 0.05 0.05 0.05 0.06 0.06 0.06 0.06 0.05 0.05 0.05 0.05 0.04 0.04
MSLP
1009.14 1008.81 1008.37 1007.72 1006.86 1005.79 1004.60 1003.38 1002.27 1001.38 1000.79 1000.51 1000.53 1000.78 1001.15 1001.54 1001.89 1002.13 1002.29 1002.39 1002.51 1002.71 1003.06 1003.59 1004.29 1005.13 1006.05 1006.99 1007.91 1008.76 1009.55 1010.28 1010.99 1011.70 1012.42 1013.15 1013.87 1014.55 1015.16 1015.67 1016.09 1016.41 1016.69 1016.96
1009.93 1009.69 1009.24 1008.51 1007.48 1006.19 1004.74 1003.29 1002.00 1001.01 1000.40 1000.21 1000.40 1000.86 1001.48 1002.11 1002.65 1003.02 1003.23 1003.30 1003.33 1003.38 1003.55 1003.89 1004.42 1005.12 1005.93 1006.80 1007.69 1008.54 1009.34 1010.10 1010.84 1011.57 1012.32 1013.07 1013.81 1014.50 1015.13 1015.67 1016.12 1016.48 1016.79 1017.09
1010.89 1010.67 1010.17 1009.30 1008.05 1006.51 1004.81 1003.15 1001.72 1000.68 1000.15 1000.13 1000.58 1001.36 1002.31 1003.26 1004.04 1004.59 1004.86 1004.90 1004.80 1004.66 1004.59 1004.67 1004.95 1005.42 1006.04 1006.78 1007.57 1008.37 1009.15 1009.91 1010.66 1011.41 1012.17 1012.94 1013.69 1014.41 1015.07 1015.65 1016.13 1016.54 1016.88 1017.21
1011.92 1011.66 1011.04 1009.99 1008.52 1006.74 1004.82 1003.00 1001.50 1000.51 1000.13 1000.38 1001.16 1002.33 1003.67 1004.97 1006.04 1006.77 1007.12 1007.13 1006.88 1006.51 1006.16 1005.92 1005.88 1006.06 1006.43 1006.96 1007.60 1008.29 1009.01 1009.73 1010.47 1011.21 1011.97 1012.75 1013.52 1014.27 1014.96 1015.57 1016.10 1016.55 1016.94 1017.30
1012.94 1012.59 1011.81 1010.56 1008.88 1006.90 1004.83 1002.93 1001.46 1000.59 1000.44 1001.01 1002.17 1003.75 1005.49 1007.14 1008.49 1009.40 1009.82 1009.78 1009.38 1008.78 1008.12 1007.55 1007.17 1007.01 1007.09 1007.37 1007.80 1008.33 1008.94 1009.58 1010.26 1010.97 1011.72 1012.49 1013.27 1014.04 1014.77 1015.43 1016.00 1016.50 1016.93 1017.31
1013.92 1013.42 1012.48 1011.05 1009.20 1007.09 1004.96 1003.08 1001.71 1001.04 1001.16 1002.06 1003.59 1005.54 1007.64 1009.60 1011.18 1012.23 1012.69 1012.60 1012.06 1011.23 1010.29 1009.40 1008.68 1008.19 1007.95 1007.95 1008.14 1008.48 1008.93 1009.45 1010.04 1010.69 1011.40 1012.16 1012.94 1013.73 1014.49 1015.19 1015.81 1016.36 1016.83 1017.25
1014.85 1014.19 1013.09 1011.52 1009.58 1007.44 1005.34 1003.56 1002.37 1001.94 1002.34 1003.54 1005.38 1007.62 1009.98 1012.14 1013.87 1015.01 1015.48 1015.32 1014.65 1013.63 1012.45 1011.29 1010.27 1009.48 1008.95 1008.67 1008.61 1008.73 1008.99 1009.36 1009.83 1010.39 1011.03 1011.75 1012.53 1013.33 1014.12 1014.86 1015.53 1016.12 1016.64 1017.10
1015.76 1014.96 1013.74 1012.10 1010.15 1008.07 1006.10 1004.52 1003.55 1003.36 1004.01 1005.44 1007.48 1009.88 1012.36 1014.60 1016.36 1017.49 1017.93 1017.70 1016.92 1015.77 1014.42 1013.05 1011.81 1010.78 1010.00 1009.47 1009.17 1009.06 1009.11 1009.31 1009.63 1010.07 1010.63 1011.30 1012.06 1012.86 1013.67 1014.46 1015.18 1015.82 1016.38 1016.87
1016.70 1015.78 1014.51 1012.89 1011.03 1009.12 1007.37 1006.02 1005.31 1005.35 1006.18 1007.74 1009.84 1012.25 1014.68 1016.84 1018.52 1019.55 1019.90 1019.59 1018.74 1017.51 1016.07 1014.60 1013.22 1012.03 1011.07 1010.33 1009.81 1009.48 1009.33 1009.33 1009.48 1009.79 1010.25 1010.85 1011.57 1012.37 1013.20 1014.02 1014.78 1015.47 1016.08 1016.62
1017.68 1016.72 1015.46 1013.96 1012.29 1010.63 1009.17 1008.12 1007.66 1007.89 1008.82 1010.38 1012.40 1014.65 1016.88 1018.82 1020.29 1021.14 1021.36 1020.96 1020.07 1018.82 1017.38 1015.89 1014.47 1013.21 1012.13 1011.25 1010.55 1010.03 1009.67 1009.47 1009.45 1009.61 1009.95 1010.46 1011.13 1011.91 1012.75 1013.60 1014.40 1015.14 1015.79 1016.37
1018.71 1017.77 1016.63 1015.32 1013.94 1012.60 1011.48 1010.74 1010.52 1010.89 1011.85 1013.30 1015.11 1017.07 1018.96 1020.56 1021.71 1022.32 1022.37 1021.89 1020.98 1019.78 1018.40 1016.98 1015.61 1014.35 1013.22 1012.25 1011.41 1010.72 1010.17 1009.79 1009.58 1009.58 1009.78 1010.20 1010.80 1011.55 1012.38 1013.24 1014.08 1014.86 1015.55 1016.17
1019.74 1018.90 1017.95 1016.91 1015.87 1014.91 1014.16 1013.73 1013.73 1014.20 1015.10 1016.38 1017.88 1019.45 1020.92 1022.11 1022.90 1023.23 1023.09 1022.54 1021.64 1020.51 1019.25 1017.96 1016.69 1015.49 1014.38 1013.36 1012.43 1011.59 1010.87 1010.30 1009.91 1009.74 1009.80 1010.10 1010.62 1011.31 1012.13 1012.99 1013.85 1014.66 1015.39 1016.05
1020.72 1020.04 1019.33 1018.62 1017.94 1017.37 1016.99 1016.87 1017.07 1017.59 1018.41 1019.45 1020.61 1021.77 1022.78 1023.53 1023.95 1023.99 1023.68 1023.06 1022.20 1021.17 1020.06 1018.92 1017.79 1016.70 1015.63 1014.59 1013.59 1012.63 1011.76 1011.02 1010.45 1010.11 1010.01 1010.18 1010.60 1011.23 1012.00 1012.85 1013.72 1014.56 1015.33 1016.02
1021.59 1021.11 1020.67 1020.28 1019.98 1019.79 1019.76 1019.92 1020.28 1020.83 1021.55 1022.36 1023.19 1023.93 1024.51 1024.86 1024.93 1024.72 1024.26 1023.59 1022.77 1021.86 1020.90 1019.93 1018.95 1017.96 1016.95 1015.92 1014.87 1013.82 1012.81 1011.91 1011.18 1010.66 1010.41 1010.44 1010.74 1011.28 1011.99 1012.82 1013.69 1014.54 1015.34 1016.06
1022.34 1022.05 1021.87 1021.79 1021.83 1021.97 1022.24 1022.63 1023.13 1023.71 1024.33 1024.93 1025.47 1025.87 1026.08 1026.09 1025.88 1025.47 1024.89 1024.19 1023.42 1022.62 1021.81 1020.98 1020.14 1019.26 1018.31 1017.29 1016.21 1015.08 1013.96 1012.92 1012.03 1011.36 1010.95 1010.83 1011.00 1011.44 1012.08 1012.86 1013.71 1014.57 1015.40 1016.16
1022.96 1022.85 1022.88 1023.06 1023.36 1023.77 1024.28 1024.85 1025.45 1026.04 1026.59 1027.03 1027.34 1027.48 1027.43 1027.19 1026.78 1026.22 1025.57 1024.87 1024.16 1023.45 1022.75 1022.05 1021.32 1020.52 1019.63 1018.63 1017.52 1016.34 1015.14 1013.98 1012.96 1012.14 1011.58 1011.32 1011.35 1011.67 1012.22 1012.94 1013.76 1014.62 1015.47 1016.28
1023.50 1023.52 1023.71 1024.06 1024.55 1025.14 1025.80 1026.49 1027.15 1027.76 1028.25 1028.59 1028.76 1028.73 1028.52 1028.12 1027.59 1026.96 1026.28 1025.59 1024.92 1024.29 1023.68 1023.07 1022.41 1021.68 1020.83 1019.85 1018.74 1017.52 1016.26 1015.03 1013.90 1012.96 1012.27 1011.87 1011.76 1011.96 1012.41 1013.05 1013.83 1014.68 1015.54 1016.38
1024.04 1024.13 1024.40 1024.83 1025.41 1026.08 1026.82 1027.56 1028.26 1028.86 1029.32 1029.61 1029.70 1029.60 1029.31 1028.85 1028.28 1027.63 1026.95 1026.29 1025.66 1025.08 1024.52 1023.97 1023.37 1022.68 1021.86 1020.91 1019.81 1018.59 1017.31 1016.03 1014.83 1013.80 1012.99 1012.46 1012.23 1012.30 1012.63 1013.19 1013.90 1014.72 1015.58 1016.44
1024.65 1024.75 1025.02 1025.46 1026.04 1026.72 1027.45 1028.19 1028.88 1029.46 1029.91 1030.18 1030.26 1030.14 1029.84 1029.39 1028.83 1028.21 1027.56 1026.93 1026.33 1025.78 1025.25 1024.72 1024.15 1023.49 1022.71 1021.79 1020.72 1019.53 1018.26 1016.97 1015.75 1014.65 1013.76 1013.13 1012.77 1012.71 1012.92 1013.37 1014.00 1014.76 1015.60 1016.45
1025.36 1025.43 1025.66 1026.04 1026.56 1027.18 1027.86 1028.54 1029.19 1029.74 1030.17 1030.44 1030.54 1030.45 1030.20 1029.79 1029.28 1028.71 1028.10 1027.50 1026.93 1026.39 1025.87 1025.35 1024.79 1024.16 1023.41 1022.53 1021.52 1020.38 1019.16 1017.90 1016.67 1015.55 1014.60 1013.87 1013.41 1013.22 1013.30 1013.62 1014.15 1014.83 1015.61 1016.43
1026.17 1026.19 1026.35 1026.65 1027.08 1027.59 1028.18 1028.78 1029.36 1029.88 1030.29 1030.57 1030.70 1030.66 1030.46 1030.13 1029.68 1029.16 1028.60 1028.03 1027.47 1026.94 1026.42 1025.90 1025.35 1024.74 1024.03 1023.21 1022.27 1021.21 1020.05 1018.85 1017.65 1016.53 1015.54 1014.74 1014.17 1013.86 1013.80 1013.99 1014.39 1014.96 1015.64 1016.40
1027.06 1027.03 1027.12 1027.33 1027.65 1028.06 1028.54 1029.05 1029.56 1030.02 1030.41 1030.70 1030.85 1030.86 1030.73 1030.47 1030.09 1029.63 1029.11 1028.57 1028.02 1027.49 1026.97 1026.44 1025.90 1025.32 1024.66 1023.90 1023.03 1022.06 1020.98 1019.85 1018.71 1017.60 1016.59 1015.74 1015.07 1014.64 1014.45 1014.49 1014.74 1015.17 1015.74 1016.39
1027.94 1027.89 1027.93 1028.07 1028.30 1028.62 1029.00 1029.43 1029.86 1030.28 1030.64 1030.92 1031.09 1031.15 1031.07 1030.87 1030.55 1030.15 1029.67 1029.16 1028.63 1028.10 1027.57 1027.05 1026.52 1025.96 1025.34 1024.65 1023.86 1022.97 1021.99 1020.93 1019.85 1018.77 1017.75 1016.85 1016.11 1015.57 1015.24 1015.13 1015.22 1015.49 1015.92 1016.44
1028.76 1028.71 1028.74 1028.84 1029.02 1029.27 1029.58 1029.93 1030.30 1030.67 1031.00 1031.27 1031.46 1031.55 1031.52 1031.37 1031.11 1030.75 1030.31 1029.83 1029.32 1028.80 1028.28 1027.76 1027.24 1026.71 1026.13 1025.49 1024.77 1023.96 1023.06 1022.07 1021.04 1020.00 1018.99 1018.06 1017.25 1016.61 1016.15 1015.89 1015.83 1015.94 1016.21 1016.59
1029.46 1029.45 1029.49 1029.59 1029.75 1029.97 1030.24 1030.54 1030.86 1031.19 1031.49 1031.75 1031.94 1032.05 1032.05 1031.94 1031.73 1031.42 1031.03 1030.58 1030.09 1029.59 1029.08 1028.58 1028.07 1027.55 1027.00 1026.41 1025.74 1024.99 1024.15 1023.23 1022.26 1021.25 1020.25 1019.30 1018.45 1017.73 1017.16 1016.77 1016.56 1016.52 1016.63 1016.86
1030.01 1030.06 1030.14 1030.28 1030.45 1030.66 1030.91 1031.18 1031.47 1031.77 1032.05 1032.29 1032.48 1032.60 1032.63 1032.56 1032.39 1032.13 1031.79 1031.38 1030.92 1030.44 1029.95 1029.46 1028.96 1028.45 1027.92 1027.35 1026.72 1026.01 1025.22 1024.36 1023.42 1022.45 1021.48 1020.53 1019.65 1018.88 1018.23 1017.74 1017.41 1017.23 1017.20 1017.30
Thickness
5503 5495 5490 5494 5495 5499 5502 5503 5507 5519 5528 5524 5524 5529 5534 5542 5546 5549 5554 5561 5566 5572 5580 5585 5591 5595 5599 5602 5607 5611 5615 5618 5621 5622 5624 5625 5626 5630 5632 5633 5635 5636 5636 5637
5486 5479 5486 5490 5489 5489 5489 5489 5495 5504 5513 5512 5511 5518 5525 5530 5533 5536 5541 5548 5553 5559 5565 5571 5577 5583 5587 5590 5594 5599 5604 5608 5611 5614 5616 5617 5618 5620 5623 5625 5626 5628 5629 5630
5470 5474 5480 5479 5477 5475 5479 5478 5482 5485 5494 5501 5499 5501 5512 5518 5522 5525 5529 5535 5540 5544 5549 5555 5562 5566 5572 5577 5582 5587 5591 5596 5600 5604 5606 5607 5608 5611 5612 5615 5617 5619 5621 5623
5465 5469 5468 5465 5464 5463 5464 5475 5477 5476 5471 5474 5486 5475 5497 5503 5506 5509 5512 5516 5522 5528 5534 5540 5547 5552 5557 5563 5568 5574 5579 5585 5589 5593 5596 5598 5599 5601 5603 5606 5608 5611 5613 5614
5453 5456 5454 5452 5454 5455 5457 5465 5467 5466 5461 5460 5472 5466 5479 5491 5490 5491 5494 5500 5507 5514 5519 5525 5532 5538 5544 5549 5555 5561 5566 5572 5577 5582 5586 5588 5590 5592 5594 5596 5599 5601 5603 5605
5448 5450 5446 5443 5448 5452 5452 5454 5459 5459 5452 5444 5463 5460 5461 5463 5468 5471 5477 5483 5489 5497 5504 5511 5518 5524 5530 5536 5541 5547 5554 5559 5565 5569 5573 5577 5580 5583 5584 5586 5589 5591 5593 5595
5435 5438 5438 5436 5433 5438 5436 5429 5427 5429 5432 5441 5463 5453 5441 5446 5451 5455 5460 5467 5474 5481 5488 5496 5503 5509 5516 5522 5528 5533 5540 5546 5552 5556 5561 5566 5570 5573 5575 5577 5580 5582 5584 5586
5410 5414 5423 5422 5417 5414 5418 5417 5407 5409 5426 5439 5451 5440 5425 5433 5437 5442 5446 5451 5457 5464 5472 5479 5488 5495 5501 5508 5514 5520 5526 5533 5539 5544 5549 5555 5559 5563 5566 5568 5571 5573 5575 5578
5391 5399 5413 5413 5414 5409 5406 5405 5411 5404 5412 5417 5430 5425 5419 5421 5422 5426 5431 5437 5442 5448 5457 5463 5472 5479 5487 5494 5501 5507 5513 5520 5527 5533 5538 5543 5548 5552 5555 5558 5560 5562 5565 5567
5380 5379 5396 5402 5402 5399 5398 5398 5393 5391 5394 5407 5417 5410 5398 5396 5400 5409 5414 5420 5426 5433 5440 5448 5455 5464 5472 5480 5487 5495 5501 5508 5515 5521 5526 5532 5537 5542 5545 5547 5549 5552 5554 5557
5372 5365 5377 5384 5379 5376 5381 5381 5379 5381 5388 5390 5396 5383 5385 5382 5385 5391 5398 5405 5411 5417 5424 5431 5440 5448 5458 5466 5474 5481 5489 5496 5502 5509 5514 5520 5526 5531 5534 5537 5539 5541 5544 5546
5361 5356 5357 5367 5371 5371 5367 5364 5363 5357 5367 5378 5378 5365 5374 5374 5376 5379 5383 5390 5396 5403 5409 5417 5425 5434 5443 5452 5461 5468 5475 5483 5490 5496 5502 5508 5514 5519 5523 5525 5528 5531 5533 5536
5349 5340 5339 5350 5354 5354 5353 5353 5353 5351 5354 5357 5359 5357 5365 5364 5366 5368 5372 5377 5383 5389 5395 5402 5410 5418 5427 5437 5447 5455 5463 5470 5477 5484 5490 5496 5501 5507 5511 5514 5517 5520 5523 5525
5346 5332 5328 5331 5335 5335 5334 5339 5343 5339 5335 5339 5344 5342 5348 5349 5351 5354 5358 5364 5369 5375 5381 5388 5395 5403 5412 5422 5432 5442 5450 5457 5465 5471 5477 5484 5489 5494 5499 5503 5505 5509 5512 5514
5331 5323 5325 5327 5332 5332 5327 5326 5329 5327 5328 5326 5331 5331 5331 5334 5336 5339 5345 5351 5356 5362 5368 5374 5381 5390 5399 5409 5419 5429 5438 5445 5452 5459 5465 5471 5477 5482 5486 5490 5494 5497 5499 5502
5320 5313 5315 5317 5327 5327 5320 5319 5318 5320 5320 5319 5322 5319 5322 5323 5325 5328 5332 5338 5342 5347 5353 5360 5367 5376 5386 5396 5405 5415 5424 5433 5440 5448 5454 5459 5464 5469 5473 5477 5480 5484 5486 5489
5308 5303 5304 5310 5321 5319 5306 5304 5304 5303 5304 5305 5303 5304 5308 5311 5314 5315 5319 5323 5328 5333 5339 5346 5353 5362 5371 5382 5392 5402 5411 5421 5428 5436 5442 5447 5451 5456 5460 5465 5468 5471 5474 5477
5297 5295 5296 5301 5303 5290 5292 5299 5298 5296 5294 5294 5294 5295 5297 5300 5303 5307 5309 5310 5315 5322 5328 5335 5342 5350 5359 5369 5379 5389 5398 5408 5416 5423 5429 5434 5439 5443 5447 5451 5455 5458 5461 5464
5298 5292 5290 5292 5290 5292 5291 5289 5285 5284 5286 5284 5284 5287 5290 5294 5300 5303 5302 5302 5304 5310 5317 5323 5330 5338 5347 5357 5367 5376 5385 5395 5402 5409 5415 5421 5427 5431 5435 5439 5443 5446 5449 5452
5293 5286 5280 5286 5283 5278 5276 5278 5283 5281 5277 5275 5277 5278 5280 5284 5284 5289 5293 5295 5299 5303 5308 5315 5322 5329 5338 5347 5355 5364 5373 5381 5388 5395 5402 5408 5414 5419 5423 5427 5430 5434 5437 5440
5277 5276 5272 5273 5272 5268 5262 5271 5278 5267 5261 5262 5265 5267 5269 5269 5269 5276 5283 5287 5290 5295 5301 5308 5314 5320 5327 5335 5344 5352 5361 5369 5376 5383 5390 5396 5401 5407 5411 5415 5418 5422 5425 5428
5263 5264 5263 5265 5261 5255 5256 5261 5253 5249 5252 5254 5256 5257 5258 5261 5265 5269 5273 5277 5282 5286 5293 5298 5303 5310 5317 5325 5333 5341 5349 5357 5365 5372 5378 5384 5389 5394 5399 5403 5406 5410 5414 5416
5257 5252 5251 5248 5247 5248 5247 5245 5245 5244 5243 5245 5246 5248 5250 5253 5256 5261 5264 5268 5272 5276 5282 5288 5293 5300 5308 5315 5322 5329 5337 5345 5354 5360 5366 5371 5377 5383 5387 5391 5395 5398 5402 5405
5249 5247 5245 5242 5244 5243 5241 5240 5237 5236 5234 5236 5238 5239 5242 5244 5248 5251 5255 5258 5262 5267 5271 5278 5284 5290 5298 5304 5311 5317 5326 5334 5342 5348 5353 5358 5364 5370 5374 5379 5383 5386 5389 5392
5241 5237 5236 5232 5234 5234 5235 5231 5229 5228 5229 5230 5231 5232 5234 5236 5239 5243 5246 5249 5253 5257 5261 5267 5272 5278 5284 5292 5299 5306 5313 5321 5328 5334 5340 5346 5352 5357 5361 5365 5368 5372 5375 5379
5229 5222 5219 5222 5222 5220 5221 5221 5220 5220 5221 5222 5223 5225 5227 5228 5230 5234 5237 5240 5243 5247 5252 5257 5262 5267 5273 5280 5287 5294 5301 5309 5316 5322 5327 5333 5338 5343 5347 5351 5353 5357 5361 5365